Fort Myers - Cape Coral Weather Center

Moon Phase Calendar



Online Cameras

 


      

Current Conditions in Burnt Store Marina
12/3/2022 11:50:38 PM

67°F
Feels Like 67
Clear
Humidity
86%
Pressure
30.21"
Wind
2 mph (ESE)
Dew Point
62°F
UV Index
0/10 (Low)
Visibility
6 mi

Hourly Forecast

Date & Time Sat, Dec 3
11:00 PM
Sun, Dec 4
12:00 AM
Sun, Dec 4
1:00 AM
Sun, Dec 4
2:00 AM
Sun, Dec 4
3:00 AM
Sun, Dec 4
4:00 AM
Sun, Dec 4
5:00 AM
Sun, Dec 4
6:00 AM
Sun, Dec 4
7:00 AM
Sun, Dec 4
8:00 AM
Sun, Dec 4
9:00 AM
Sun, Dec 4
10:00 AM
Sun, Dec 4
11:00 AM
Sun, Dec 4
12:00 PM
Sun, Dec 4
1:00 PM
Sun, Dec 4
2:00 PM
Sun, Dec 4
3:00 PM
Sun, Dec 4
4:00 PM
Sun, Dec 4
5:00 PM
Sun, Dec 4
6:00 PM
Sun, Dec 4
7:00 PM
Sun, Dec 4
8:00 PM
Sun, Dec 4
9:00 PM
Sun, Dec 4
10:00 PM
Sun, Dec 4
11:00 PM
Mon, Dec 5
12:00 AM
Mon, Dec 5
1:00 AM
Mon, Dec 5
2:00 AM
Mon, Dec 5
3:00 AM
Mon, Dec 5
4:00 AM
Mon, Dec 5
5:00 AM
Mon, Dec 5
6:00 AM
Mon, Dec 5
7:00 AM
Mon, Dec 5
8:00 AM
Mon, Dec 5
9:00 AM
Mon, Dec 5
10:00 AM
Mon, Dec 5
11:00 AM
Mon, Dec 5
12:00 PM
Mon, Dec 5
1:00 PM
Mon, Dec 5
2:00 PM
Mon, Dec 5
3:00 PM
Mon, Dec 5
4:00 PM
Mon, Dec 5
5:00 PM
Mon, Dec 5
6:00 PM
Mon, Dec 5
7:00 PM
Mon, Dec 5
8:00 PM
Mon, Dec 5
9:00 PM
Mon, Dec 5
10:00 PM
Condition
Clear

Clear

Clear

Clear

Clear

Clear

Clear

Clear

Clear

Clear

Clear

Clear

Clear

Clear

Clear

Clear

Clouds

Clouds

Clouds

Clouds

Clouds

Clouds

Clouds

Clouds

Clouds

Clouds

Clouds

Clouds

Clouds

Clouds

Clouds

Clouds

Clouds

Clear

Clouds

Clouds

Clouds

Clouds

Clouds

Clouds

Clouds

Clouds

Clouds

Clouds

Clouds

Clouds

Clouds

Clouds
Temperature 67°F67°F67°F67°F66°F66°F66°F65°F65°F67°F70°F73°F76°F77°F78°F79°F79°F78°F76°F73°F72°F71°F70°F70°F69°F68°F67°F67°F66°F66°F66°F66°F65°F67°F70°F73°F75°F76°F78°F78°F78°F77°F75°F72°F72°F71°F71°F71°F
Feels Like 67°F67°F67°F67°F66°F66°F65°F65°F65°F66°F70°F73°F76°F77°F78°F79°F78°F78°F76°F72°F71°F71°F70°F69°F68°F68°F67°F67°F67°F66°F66°F66°F65°F67°F70°F73°F75°F76°F77°F78°F78°F77°F76°F73°F72°F71°F71°F71°F
Cloudiness 1%1%1%3%3%6%8%8%8%7%7%7%7%6%6%7%11%12%11%21%34%50%58%65%64%66%71%84%72%52%40%34%29%7%18%16%15%14%14%29%27%31%34%35%35%25%21%21%
Visibility 6 mi6 mi6 mi6 mi6 mi6 mi6 mi6 mi6 mi6 mi6 mi6 mi6 mi6 mi6 mi6 mi6 mi6 mi6 mi6 mi6 mi6 mi6 mi6 mi6 mi6 mi6 mi6 mi6 mi6 mi6 mi6 mi6 mi6 mi6 mi6 mi6 mi6 mi6 mi6 mi6 mi6 mi6 mi6 mi6 mi6 mi6 mi6 mi
Precipitation 0%0%0%0%0%0%0%0%0%0%0%0%0%0%0%0%0%0%0%0%0%0%0%0%0%0%0%0%0%0%0%0%0%0%0%0%0%0%0%0%0%0%0%0%0%0%0%0%
Humidity 83%86%83%81%78%76%74%74%75%74%66%60%57%54%50%48%49%50%56%60%62%64%64%65%69%73%76%78%79%80%80%81%82%78%71%65%60%56%54%53%54%55%62%68%69%69%69%70%
Dew Point 62°F62°F62°F61°F59°F58°F57°F57°F57°F58°F58°F59°F59°F59°F58°F57°F57°F57°F59°F58°F58°F58°F58°F58°F58°F59°F59°F60°F60°F60°F60°F60°F60°F60°F60°F60°F60°F60°F59°F59°F60°F60°F61°F61°F61°F61°F61°F60°F
Pressure 30.21"30.21"30.21"30.21"30.18"30.18"30.18"30.18"30.21"30.21"30.21"30.21"30.21"30.18"30.15"30.12"30.09"30.09"30.09"30.09"30.12"30.12"30.12"30.12"30.12"30.12"30.09"30.09"30.06"30.06"30.06"30.09"30.09"30.12"30.12"30.15"30.12"30.12"30.09"30.06"30.03"30.06"30.06"30.06"30.09"30.09"30.12"30.09"
Wind Speed 8.1 mph7.7 mph7.1 mph7.2 mph7.1 mph6.8 mph6.2 mph6 mph6.6 mph6 mph6.6 mph6.2 mph6.1 mph5.7 mph5.8 mph6 mph6.2 mph6.7 mph6.3 mph6.4 mph5.8 mph4.8 mph4.9 mph5.9 mph5.9 mph4.6 mph3.5 mph3 mph2.3 mph1.9 mph2.3 mph2.7 mph3.2 mph4 mph4 mph4 mph3.4 mph2.4 mph2.2 mph3.1 mph3.8 mph4 mph4.9 mph6.5 mph6.4 mph6 mph5.5 mph5.8 mph
Wind
Direction
76°
ENE
73°
ENE
70°
ENE
64°
ENE
54°
NE
49°
NE
47°
NE
61°
ENE
54°
NE
49°
NE
47°
NE
52°
NE
52°
NE
41°
NE
23°
NNE
10°
N
360°
N

N
353°
N
350°
N

N
17°
NNE
34°
NE
45°
NE
52°
NE
65°
ENE
85°
E
107°
ESE
110°
ESE
73°
ENE
48°
NE
47°
NE
48°
NE
41°
NE
45°
NE
52°
NE
48°
NE
29°
NNE
347°
NNW
328°
NNW
322°
NW
318°
NW
305°
NW
302°
WNW
306°
NW
316°
NW
326°
NW
348°
NNW

Daily Forecast

Date High Low Precip. Humidity
Today
Dec 3

Clear
80 °F
65 °F
0%
53%
Sunday
Dec 4

Clear
79 °F
65 °F
0%
54%
Monday
Dec 5

Clouds
78 °F
65 °F
0%
56%
Tuesday
Dec 6

Clear
80 °F
66 °F
0%
52%
Wednesday
Dec 7

Clouds
80 °F
66 °F
4%
59%
Thursday
Dec 8

Rain
79 °F
66 °F
20%
56%
Friday
Dec 9

Clear
78 °F
67 °F
0%
54%
Saturday
Dec 10

Clouds
77 °F
61 °F
0%
61%
Sunday
Dec 11

Clear
70 °F
55 °F
0%
39%
Monday
Dec 12

Clear
73 °F
59 °F
0%
49%
Tuesday
Dec 13

Clear
71 °F
53 °F
0%
27%
Wednesday
Dec 14

Clear
78 °F
57 °F
0%
55%
Thursday
Dec 15

Rain
81 °F
68 °F
20%
52%
Friday
Dec 16

Rain
81 °F
68 °F
32%
52%
Saturday
Dec 17

Rain
81 °F
67 °F
20%
54%
Sunday
Dec 18

Rain
81 °F
67 °F
28%
55%

Temperature 8-14 Day Outlook



Precipitation 8-14 Day Outlook




Quick Links
Fort Myers - Cape Coral News
Fort Myers - Cape Coral Photos
Fort Myers - Cape Coral Videos




About Us
Contact Us
Site Map
Search Site
Advertise With Us
   
FortMyers.USGulf.info
THE FORT MYERS - CAPE CORAL WEBSITE

Copyright 2022, Coastal Town
Privacy    |    Legal